This demonstration page uses our WeatherBlox Daily Observations layout. Learn more.

Left ArrowRight Arrow

41.55636, -103.73856

Hourly Observations for January 18, 2021

Temp ( °F °C ) Dew Point ( °F °C ) Humidity (%) Winds ( mph kmh ) Pressure ( in mb ) Visibility ( mi km ) Precip ( " mm )
12:58 am 00:58 Cloudy with Light Showers 36 2.2 26 -3.1 68 68 NW 15 24 29.91 1013 10 16.0934 0 0
1:58 am 01:58 Mostly Cloudy 34 1.1 28 -2 80 80 NW 21 33 29.96 1014 10 16.0934 0 0
2:58 am 02:58 Mostly Cloudy 33 0.3 26 -3.4 76 76 NW 18 30 29.96 1015 10 16.0934 0 0
3:58 am 03:58 Mostly Cloudy 31 -0.3 24 -4.6 73 73 NW 18 30 29.98 1015 10 16.0934 0 0
4:58 am 04:58 Mostly Cloudy 30 -1.3 23 -5.1 76 76 NW 20 31 30.02 1017 10 16.0934 0 0
5:58 am 05:58 Cloudy 30 -0.9 23 -4.9 75 75 NW 15 24 30.05 1018 10 16.0934 0 0
6:58 am 06:58 Mostly Cloudy 30 -1 23 -5.1 74 74 NW 15 24 30.07 1018 10 16.0934 0 0
7:58 am 07:58 Sunny 27 -2.6 22 -5.4 81 81 WNW 12 19 30.09 1019 10 16.0934 0 0
8:58 am 08:58 Mostly Cloudy 32 -0.1 24 -4.3 74 74 WNW 14 22 30.09 1019 10 16.0934 0 0
9:58 am 09:58 Mostly Cloudy 34 1 23 -5 65 65 NW 24 39 30.1 1019 10 16.0934 0 0
10:58 am 10:58 Mostly Sunny 36 2 22 -5.4 58 58 NW 28 44 30.09 1019 10 16.0934 0 0
11:58 am 11:58 Mostly Cloudy 37 2.8 20 -6.5 51 51 NNW 30 48 30.08 1019 10 16.0934 0 0
12:58 pm 12:58 Windy with Rain Showers Likely 38 3.1 21 -6.3 50 50 NNW 28 44 30.07 1018 10 16.0934 0 0
1:58 pm 13:58 Windy with Rain Showers Likely 36 2.3 22 -5.4 57 57 N 22 35 30.07 1018 10 16.0934 0 0
2:58 pm 14:58 Partly Cloudy 35 1.9 20 -6.6 54 54 NNW 24 39 30.11 1020 10 16.0934 0 0
3:58 pm 15:58 Mostly Cloudy 34 1.1 17 -8.4 50 50 NNW 26 43 30.16 1022 10 16.0934 0 0
4:58 pm 16:58 Mostly Cloudy 32 0 13 -10.3 46 46 N 18 30 30.23 1024 10 16.0934 0 0
5:58 pm 17:58 Clear 26 -3.3 16 -9 65 65 N 9 15 30.28 1026 10 16.0934 0 0
6:58 pm 18:58 Clear 23 -4.8 16 -9.1 72 72 N 9 15 30.32 1027 10 16.0934 0 0
7:58 pm 19:58 Clear 20 -6.8 12 -10.9 73 73 SW 5 7 30.38 1029 10 16.0934 0 0
8:58 pm 20:58 Clear 16 -8.7 14 -9.9 91 91 W 12 19 30.39 1029 10 16.0934 0 0
9:58 pm 21:58 Clear 20 -6.9 16 -9 85 85 WNW 10 17 30.4 1029 10 16.0934 0 0
10:58 pm 22:58 Clear 14 -9.8 12 -11.1 90 90 WSW 6 9 30.42 1030 10 16.0934 0 0
11:58 pm 23:58 Clear 15 -9.2 13 -10.7 89 89 WNW 12 19 30.4 1029 10 16.0934 0 0

Powered by AerisWeather